This is the latest recevied weather packets stored in our database for station/object XE1GMR. If no packets are shown the sender has not sent any weather packets the latest 10 day(s).
| Time | Temp. | Humidity | Pressure | Rain* | Wind** | Luminosity | Snow |
|---|---|---|---|---|---|---|---|
| 1778204825 | 23.33° C | 61% | 1120.9 hPa | 0 mm | - | 0 W/m² | - |
| 1778204521 | 23.33° C | 60% | 1120.9 hPa | 0 mm | - | 0 W/m² | - |
| 1778204218 | 23.89° C | 59% | 1120.7 hPa | 0 mm | - | 0 W/m² | - |
| 1778203915 | 23.89° C | 57% | 1120.7 hPa | 0 mm | - | 0 W/m² | - |
| 1778203612 | 23.89° C | 57% | 1120.7 hPa | 0 mm | - | 0 W/m² | - |
| 1778203309 | 23.89° C | 55% | 1120.4 hPa | 0 mm | - | 0 W/m² | - |
| 1778203008 | 24.44° C | 53% | 1120.3 hPa | 0 mm | - | 0 W/m² | - |
| 1778202705 | 25° C | 51% | 1120.2 hPa | 0 mm | - | 0 W/m² | - |
| 1778202401 | 25° C | 50% | 1120.2 hPa | 0 mm | - | 0 W/m² | - |
| 1778202099 | 25° C | 49% | 1120.2 hPa | 0 mm | - | 0 W/m² | - |
| 1778201796 | 25.56° C | 46% | 1119.9 hPa | 0 mm | - | 1 W/m² | - |
| 1778201493 | 25.56° C | 43% | 1119.6 hPa | 0 mm | - | 4 W/m² | - |
| 1778201188 | 25.56° C | 43% | 1119.7 hPa | 0 mm | - | 9 W/m² | - |
| 1778200885 | 25.56° C | 43% | 1119.7 hPa | 0 mm | - | 16 W/m² | - |
| 1778200581 | 26.11° C | 42% | 1119.6 hPa | 0 mm | - | 25 W/m² | - |
| 1778200279 | 26.11° C | 40% | 1119.5 hPa | 0 mm | - | 34 W/m² | - |
| 1778199975 | 26.67° C | 39% | 1119.6 hPa | 0 mm | - | 38 W/m² | - |
| 1778199674 | 26.67° C | 38% | 1119.5 hPa | 0 mm | - | 49 W/m² | - |
| 1778199368 | 26.67° C | 38% | 1119.3 hPa | 0 mm | - | 66 W/m² | - |
| 1778199064 | 27.22° C | 36% | 1119.4 hPa | 0 mm | - | 65 W/m² | - |
| 1778198761 | 27.22° C | 35% | 1119.2 hPa | 0 mm | - | 71 W/m² | - |
| 1778198458 | 27.22° C | 35% | 1119.1 hPa | 0 mm | - | 67 W/m² | - |
| 1778198155 | 27.22° C | 35% | 1119.1 hPa | 0 mm | - | 72 W/m² | - |
| 1778197852 | 26.67° C | 36% | 1119 hPa | 0 mm | - | 72 W/m² | - |
| 1778197548 | 26.67° C | 36% | 1119.1 hPa | 0 mm | - | 57 W/m² | - |
* Rain latest hour (hover to see other rain measurements)
** Current wind speed in m/s (hover to see current wind gust speed)